Lid_Strength_Index
0 4 7 6 10 12 14 13 11 10 9 6 6 7 8 7 9 12 2 1 1 1 -0 -0 -1 -1 -1 -1 -1 -1 -1 -1 -1 -1 -1 -1 -1 -1 -1 -1 -1 -1 -1 -1 -1 -1 -1 -1 -1
2 5 7 10 13 15 14 12 12 9 7 6 6 6 7 8 5 5 4 1 0 0 -0 -0 -1 -1 -1 -1 -1 -1 -1 -1 -1 -1 -1 -1 -1 -1 -1 -1 -1 -1 -1 -1 -1 -1 -1 -1 -1
6 6 8 12 15 15 14 11 9 9 6 6 7 5 6 8 4 4 2 1 0 0 -0 -0 -1 -1 -1 -1 -1 -1 -1 -1 -1 -1 -1 -1 -1 -1 -1 -1 -1 -1 -1 -1 -1 -1 -1 -1 -1
9 10 10 12 15 13 11 10 9 8 6 6 6 8 5 3 4 2 1 0 1 0 -0 -0 -1 -1 -1 -1 -1 -1 -1 -1 -1 -1 -1 -1 -1 -1 -1 -1 -1 -1 -1 -1 -1 -1 -1 -1 -1
10 12 15 16 13 12 11 9 9 10 9 7 6 8 7 4 2 1 1 1 1 1 0 -0 -1 -1 -1 -1 -1 -1 -1 -1 -1 -1 -1 -1 -1 -1 -1 -1 -1 -1 -1 -1 -1 -1 -2 -2 -2
13 13 17 16 15 11 10 9 9 9 9 9 8 8 7 3 3 2 1 1 0 1 -0 -0 -1 -1 -1 -1 -1 -1 -1 -1 -1 -1 -1 -1 -1 -2 -2 -1 -1 -1 -1 -1 -1 -2 -2 -2 -2
15 15 17 16 13 12 10 9 10 9 11 10 6 9 6 4 2 1 1 1 0 0 0 0 -0 -0 -1 -1 -1 -1 -1 -1 -1 -1 -1 -1 -1 -2 -2 -2 -2 -2 -2 -2 -2 -2 -2 -2 -2
13 15 17 15 14 14 10 9 10 8 8 5 5 9 9 4 2 1 1 1 1 1 0 0 0 -0 0 -0 -1 -1 -1 -1 -1 -1 -1 -1 -1 -1 -2 -2 -2 -2 -2 -2 -2 -2 -2 -2 -2
13 17 19 16 14 13 11 10 10 6 7 6 5 5 4 3 2 2 3 2 2 1 1 0 0 -0 0 0 -0 -1 -1 -1 -1 -1 -1 -1 -0 -1 -1 -1 -1 -1 -2 -2 -2 -2 -2 -2 -1
14 18 17 14 12 12 12 11 9 8 8 8 7 4 3 3 3 4 4 4 3 2 1 0 0 0 0 -0 -0 0 -0 -0 -0 -0 -0 -0 -0 -0 -1 -1 -1 -1 -2 -2 -2 -1 -1 -1 -1
12 15 14 13 12 12 12 11 9 9 10 8 8 6 4 4 4 4 4 3 3 2 1 1 1 0 0 0 -0 -0 0 0 -0 -0 -0 -0 -0 -0 -0 -0 -1 -0 -1 -1 -1 -1 -1 -0 0
13 11 11 12 11 12 12 10 10 10 11 8 5 5 4 5 5 4 4 3 3 2 2 1 1 0 0 -0 -0 -0 -0 -0 -0 -0 -0 -0 -0 -0 0 1 1 1 0 0 -0 -0 0 1 1
12 11 10 9 10 11 10 11 10 10 9 9 10 5 5 5 4 3 3 3 2 3 2 1 0 0 1 0 -0 1 0 -0 -0 -0 -0 -0 -0 0 1 1 1 1 0 1 1 2 1 1 1
11 10 9 10 11 11 12 11 11 9 8 9 5 5 5 5 4 4 3 3 3 2 2 1 1 2 2 2 1 1 1 1 0 -0 -0 -0 -0 1 3 1 1 1 1 2 2 1 1 1 2
9 12 11 9 10 11 11 12 12 9 8 9 9 6 5 5 4 4 3 3 3 2 2 2 3 2 2 2 2 2 2 1 0 -0 -0 -1 -1 0 1 1 1 0 0 0 0 1 3 4 5
10 12 15 12 10 10 11 14 10 9 9 9 10 6 6 5 4 4 3 3 3 2 2 1 1 2 2 3 1 1 1 -0 -0 -0 -1 -1 -1 0 0 0 0 0 1 2 2 3 6 6 5
13 16 15 13 10 11 11 15 11 9 10 10 10 7 6 6 5 4 3 3 3 2 2 2 2 1 1 1 0 -0 -0 -0 -0 -0 1 0 -1 -1 0 0 1 2 3 5 4 5 5 5 4
17 15 14 14 13 12 12 14 12 10 10 9 8 7 7 6 5 4 3 3 2 2 2 1 1 1 1 0 1 0 0 -0 -0 0 0 0 -0 -1 0 2 5 6 7 7 6 5 3 4 5
12 12 14 12 11 13 15 12 11 11 11 10 9 8 7 6 4 4 3 2 3 3 2 2 3 2 2 1 2 2 2 1 0 0 -0 -0 0 0 3 4 6 5 7 6 6 5 5 5 5
12 14 14 13 11 13 14 14 11 11 11 9 7 8 7 6 5 4 4 3 3 3 3 3 3 3 2 1 1 3 4 3 2 2 3 2 2 3 4 4 4 4 6 6 5 5 5 6 4
12 14 14 13 12 12 13 15 13 9 10 8 8 7 7 6 6 5 4 4 3 3 3 3 3 3 2 1 2 2 3 2 1 1 3 3 4 4 4 4 4 5 6 6 5 5 4 5 4
15 10 11 12 14 16 14 19 15 11 11 10 8 8 7 6 5 5 5 5 4 4 4 3 3 3 2 1 1 2 2 3 2 3 2 3 4 4 3 4 4 6 5 6 5 4 4 4 5
12 9 11 11 13 15 15 17 16 12 13 11 9 8 7 6 6 5 5 5 4 4 3 3 2 2 2 1 1 2 3 2 2 2 4 4 3 3 3 4 5 5 4 5 5 4 4 4 4
8 10 12 13 14 18 15 16 16 13 11 12 10 9 7 7 6 5 4 4 4 3 3 3 3 2 2 2 2 2 2 2 4 3 4 4 4 3 4 4 5 5 4 4 3 4 3 4 4
10 14 18 18 18 18 14 15 15 12 10 9 9 8 7 6 6 5 5 4 4 4 4 4 4 4 2 2 1 1 2 3 4 4 4 4 4 4 5 4 4 4 4 4 4 4 4 5 6
12 13 17 20 21 18 13 16 14 10 9 8 8 8 7 7 6 5 5 6 5 4 4 3 4 3 2 2 2 2 2 4 4 4 4 4 4 5 4 5 4 4 5 5 5 6 6 7 7
12 14 12 16 16 17 15 14 10 9 9 9 9 8 8 7 6 6 5 5 5 4 4 3 3 2 2 2 2 3 3 3 4 4 4 4 5 5 5 6 6 6 6 6 6 7 8 8 8
11 9 15 15 20 20 17 16 15 11 10 10 10 9 8 7 6 6 5 5 5 5 4 3 3 3 2 2 2 3 3 3 3 3 4 5 6 6 7 7 7 7 6 7 7 8 8 8 9
13 14 13 14 16 19 20 16 12 12 11 10 9 8 7 7 6 6 6 5 3 3 3 3 2 2 2 2 3 3 3 3 4 4 6 7 7 7 7 6 6 6 7 8 8 8 9 9 9
11 12 12 17 18 16 17 16 10 10 10 9 9 7 7 6 6 6 5 4 4 3 3 3 2 3 3 3 3 3 4 5 6 7 8 8 9 7 7 6 7 8 8 8 9 9 9 9 10